sat.trackr.live / text

‹ back to catalog

STARLINK-1465

NORAD 45731 · 2020-038B

PAYLOAD ACTIVE UNKNOWN

§ Identity

Operator
Country
US
Launch date
2020-06-13
Launch site
AFETR
Launch vehicle
Mass (kg)
RCS (m²)

Purposes: comms

External: N2YO · Heavens-Above · Gunter

§ Orbital elements

Epoch: 2026-09-09T16:47:57.847776Z

Period
91.06 min
Inclination
53.0416°
Eccentricity
0.0000672
Mean motion
15.81457978 rev/d
Perigee alt
325.9 km
Apogee alt
326.8 km
Semi-major
6,704.5 km
B*
4.7750e-4
RAAN
38.6163°
Arg perigee
281.4160°
Mean anomaly
78.6786°
Rev number
34,521

§ Raw data

STARLINK-14651 45731U 20038B   26252.69997509  .00097229  00000+0  47750-3 0  99982 45731  53.0416  38.6163 0000672 281.4160  78.6786 15.81457978345217

JSON: /api/v1/satellites/45731 · /tle

For live sub-satellite position, see the globe view (requires WebGL).

§ Visibility from observer

Set your observer location to see the next 7 days of passes ≥ 10°. The values pass through the URL so the page stays shareable.

No JS? Fill the form by hand. The geolocation button needs JavaScript.